STARLINK-32439, 61665

Orbit data source: Space-Track

STARLINK-32439, 61665 is a payload satellite owned by SpaceX/Seattle (US) in LEO that was launched on Sat, 26 Oct 2024 UTC via an FALCON 9 launch vehicle from the Air Force Eastern Test Range (AFETR). Payload-class satellites include a variety of spacecraft equipped with specific instruments for various scientific and technological missions. These include communications satellites like Starlink; space stations such as the ISS; scientific satellites like the Hubble; Earth observation satellites from companies like Planet Labs, Umbra, and HawkEye 360; GPS; miniature CubeSats for education and research; and military/defense satellites.

Loading next visibility...
Identifier
61665, 2024-193E
Orbit
LEO
Country
Flag of USUS
Related business
Manufacturer
SpaceX/Seattle
Mission
Operational Commercial Communications
Bus & Motor
STARLINK V2M, Unknown motor
Mass
730 kg wet, ~700 kg dry
Launch date (UTC)
2024-10-26 (1 year ago)
Launch vehicle
FALCON 9
Launch site
Air Force Eastern Test Range (AFETR)
Object type
Payload
Rocket body
Debris
Shape & HBR
Box + 2 Pan, 17.7 m
Radar Cross Section
33.884 m², Large (>1 m²)

Expand to show TLE details & history
Last TLE update: 2 days ago

TLE from 2 days ago
0 STARLINK-32439
1 61665U 24193E   25312.28021419 -.00003550  00000-0 -10790-3 0  9998
2 61665  53.1621 295.2700 0001578  93.4623 266.6558 15.30162129 57939
Epoch: 2025-11-08T06:43Z
TLE epoch observation values (Epoch: 2025-11-08T06:43:30.506Z)
Latitude
-0.00002°
Longitude
146.68078°
Altitude
476.291 km
Speed
7.629 km/s
True Right ascension
19h 41m 04s
True Declination
0° 00' 00"
Sunlit
Object was in daylight at epoch
Visualization orbit readout
Latitude
Unknown
Longitude
Unknown
Altitude
Unknown
Speed
Unknown
Apparent Right ascension
Unknown
Apparent Declination
Unknown
Sunlit
N/A
Visualization observer readout
Local Sidereal Time
18:33:15
Azimuth
Unknown
Elevation
Unknown
Doppler factor
Unknown
Orbital elements
Apogee altitude
476.666 km
Perigee altitude
474.503 km
Semi-major axis
6,853.721 km
Eccentricity
0.00016
Inclination
53.1621°
RAAN
295.27°
Arg. of periapsis
93.4623°
True anomaly
266.63775°
Mean anomaly
266.6558°
Eccentric anomaly
266.64677°
Mean motion
3.82519 °/min
Orbital period
94.11 mins
BSTAR
-0.0001079
Loading maneuver chart data...
Computing Atmospheric mass density...
Loading historical data...
Loading historical data...
Loading historical data...
Loading historical data...
Loading historical data...
Loading historical data...
Loading historical data...

Documentation

Showing up to 5 results
|